Waarnemingen

Advertentie
Mijn weer
Maastricht, Nederland (6380): temperatuur & dauwpunt: 18.11.2017 17:00:00 - 24.11.2017 17:00:00 (CET)Maastricht, Nederland (6380): temperatuur 5cm: 18.11.2017 17:00:00 - 24.11.2017 17:00:00 (CET)Maastricht, Nederland (6380): windsnelheid & windstoten: 18.11.2017 17:00:00 - 24.11.2017 17:00:00 (CET)Maastricht, Nederland (6380): windrichting: 18.11.2017 17:00:00 - 24.11.2017 17:00:00 (CET)Maastricht, Nederland (6380): luchtdruk: 18.11.2017 17:00:00 - 24.11.2017 17:00:00 (CET)Maastricht, Nederland (6380): zicht: 18.11.2017 17:00:00 - 24.11.2017 17:00:00 (CET)Maastricht, Nederland (6380): neerslag: 18.11.2017 17:00:00 - 24.11.2017 17:00:00 (CET)
Datum & Tijd tt [°C] td [°C] tt 5cm [°C] ff [km/u] ff [kn] fx [km/u] fx [kn] dd ppp [hPa] vv [km] rr [mm]
24.11.2017 17:00:00 5,9 5,0 4,3 9 5 14 8 ZZW 1012,1 10 0,0
24.11.2017 16:00:00 8,4 5,5 8,1 8 4 - - ZZW 1012,0 10 0,0
24.11.2017 15:00:00 8,2 5,8 8,1 9 5 14 8 WZW 1011,8 10 0,0
24.11.2017 14:00:00 8,4 6,1 8,5 9 5 18 10 ZW 1011,4 10 0,0
24.11.2017 13:00:00 8,1 7,0 7,9 13 7 - - WZW 1011,5 10 0,0
24.11.2017 12:00:00 7,8 7,1 8,1 11 6 18 10 WZW 1011,2 10 0,0
24.11.2017 11:00:00 7,5 7,0 7,6 8 4 18 10 W 1010,3 10 0,0
24.11.2017 10:00:00 7,2 6,9 7,2 5 3 - - W 1009,6 10 0,4
24.11.2017 09:00:00 7,2 7,2 7,3 8 4 14 8 WNW 1008,7 2,4 0,6
24.11.2017 08:00:00 7,4 7,2 7,3 11 6 14 8 Z 1007,2 5 1,2
24.11.2017 07:00:00 7,4 7,4 7,3 8 4 - - N 1006,2 9 2,5
24.11.2017 06:00:00 7,6 7,3 7,5 11 6 22 12 NNW 1006,6 3,8 4,5
24.11.2017 05:00:00 7,8 7,1 7,7 4 2 11 6 - 1006,5 4,1 1,4
24.11.2017 04:00:00 8,2 7,6 8,0 9 5 - - ZW 1006,5 9 1,5
24.11.2017 03:00:00 9,1 7,9 8,8 18 10 25 14 ZZW 1007,9 9 1,5
24.11.2017 02:00:00 9,7 8,2 9,2 13 7 22 12 Z 1008,2 10 0,0
24.11.2017 01:00:00 9,6 8,0 9,2 15 8 - - Z 1009,1 10 0,0
24.11.2017 00:00:00 10,1 6,7 9,4 18 10 25 14 ZZW 1009,6 10 0,0
23.11.2017 23:00:00 9,9 7,1 9,1 16 9 22 12 ZW 1009,9 10 0,0
23.11.2017 22:00:00 10,2 7,3 9,3 18 10 - - ZW 1009,9 10 0,0
23.11.2017 21:00:00 10,1 7,8 9,3 22 12 25 14 ZW 1009,6 10 0,0
23.11.2017 20:00:00 9,7 8,9 8,0 15 8 22 12 ZW 1009,2 10 0,0
23.11.2017 19:00:00 10,5 8,4 9,7 16 9 - - ZW 1008,3 10 0,0
23.11.2017 18:00:00 10,6 8,7 9,8 15 8 32 18 ZW 1007,5 10 0,0
23.11.2017 17:00:00 11,6 9,0 10,5 18 10 50 27 WZW 1006,3 10 0,0
23.11.2017 16:00:00 13,1 10,6 12,4 34 18 - - ZW 1005,0 10 0,3
23.11.2017 15:00:00 14,1 10,0 13,0 34 18 58 31 ZZW 1003,5 10 0,0
23.11.2017 14:00:00 14,9 9,2 14,5 41 22 61 33 ZW 1003,1 10 0,0
23.11.2017 13:00:00 14,7 9,1 13,8 41 22 - - ZZW 1002,7 10 0,0
23.11.2017 12:00:00 13,9 8,7 13,2 41 22 58 31 ZZW 1002,4 10 0,0
23.11.2017 11:00:00 14,1 7,8 13,3 42 23 61 33 ZZW 1001,8 10 0,0
23.11.2017 10:00:00 14,0 7,2 12,6 37 20 - - ZZW 1000,9 10 0,0
23.11.2017 09:00:00 12,9 5,9 11,7 37 20 58 31 ZZW 1000,2 10 0,0
23.11.2017 08:00:00 12,5 5,2 11,1 42 23 58 31 Z 999,3 10 0,0
23.11.2017 07:00:00 12,6 4,8 11,5 39 21 - - ZZW 999,5 10 0,0
23.11.2017 06:00:00 12,4 4,4 11,3 35 19 47 25 Z 999,5 10 0,0
23.11.2017 05:00:00 11,6 4,0 10,2 35 19 43 23 Z 999,9 10 0,0
23.11.2017 04:00:00 11,4 3,8 9,9 35 19 - - Z 1000,2 10 0,0
23.11.2017 03:00:00 11,6 3,3 10,1 34 18 54 29 Z 1000,6 10 0,0
23.11.2017 02:00:00 11,9 3,0 10,2 35 19 47 25 Z 1001,1 10 0,0
23.11.2017 01:00:00 11,4 3,1 9,8 31 17 - - Z 1001,9 10 0,0
23.11.2017 00:00:00 11,1 3,2 9,4 28 15 40 21 ZZW 1002,5 10 0,0
22.11.2017 23:00:00 11,3 3,2 9,5 28 15 36 19 Z 1002,5 10 0,0
22.11.2017 22:00:00 10,4 3,0 8,7 22 12 - - Z 1003,0 10 0,0
22.11.2017 21:00:00 10,7 2,9 8,5 22 12 32 18 Z 1003,5 10 0,0
22.11.2017 20:00:00 10,6 3,7 8,8 24 13 32 18 Z 1004,3 10 0,0
22.11.2017 19:00:00 10,3 4,0 8,9 26 14 - - Z 1004,7 10 0,0
22.11.2017 18:00:00 11,1 4,2 9,3 26 14 40 21 Z 1004,8 10 0,0
22.11.2017 17:00:00 11,3 5,1 9,5 24 13 32 18 Z 1005,8 10 0,0
22.11.2017 16:00:00 12,5 6,2 11,0 26 14 - - Z 1005,9 10 0,0
22.11.2017 15:00:00 13,1 6,4 12,5 21 11 32 18 ZZW 1006,4 10 0,0
22.11.2017 14:00:00 13,1 6,7 12,7 26 14 40 21 ZZW 1007,1 10 0,0
22.11.2017 13:00:00 12,9 7,2 13,2 28 15 - - ZZW 1007,9 10 0,0
22.11.2017 12:00:00 11,9 7,0 11,7 24 13 36 19 ZZW 1008,2 10 0,0
22.11.2017 11:00:00 10,6 6,8 10,0 31 17 40 21 ZZW 1008,9 10 0,0
22.11.2017 10:00:00 9,5 6,5 9,1 29 16 - - ZW 1009,1 10 0,0
22.11.2017 09:00:00 9,8 6,7 9,2 29 16 43 23 ZZW 1009,0 10 0,0
22.11.2017 08:00:00 9,5 6,9 9,1 31 17 40 21 ZZW 1008,7 10 0,0
22.11.2017 07:00:00 9,6 6,8 9,1 29 16 - - ZZW 1008,4 10 0,0
22.11.2017 06:00:00 9,8 6,9 9,2 31 17 43 23 ZZW 1008,8 10 0,0
22.11.2017 05:00:00 9,8 6,8 9,2 29 16 43 23 ZZW 1009,1 10 0,0
22.11.2017 04:00:00 9,8 6,8 9,2 31 17 - - ZZW 1009,3 10 0,0
22.11.2017 03:00:00 9,6 6,7 9,1 28 15 36 19 ZZW 1009,5 10 0,0
22.11.2017 02:00:00 9,4 6,8 9,0 31 17 43 23 ZZW 1010,0 10 0,0
22.11.2017 01:00:00 9,4 6,7 8,9 34 18 - - ZW 1010,4 10 0,0
22.11.2017 00:00:00 9,2 6,7 8,7 29 16 36 19 ZZW 1010,7 10 0,0
21.11.2017 23:00:00 9,2 6,6 8,6 29 16 43 23 ZW 1011,0 10 0,0
21.11.2017 22:00:00 9,2 6,5 8,6 31 17 - - ZZW 1011,2 10 0,0
21.11.2017 21:00:00 9,1 6,5 8,6 31 17 43 23 ZZW 1011,4 10 0,0
21.11.2017 20:00:00 8,8 6,8 8,4 29 16 40 21 ZZW 1012,1 10 0,0
21.11.2017 19:00:00 9,0 7,0 8,6 34 18 - - ZW 1012,3 10 0,0
21.11.2017 18:00:00 9,1 7,1 8,7 29 16 40 21 ZW 1012,4 10 0,0
21.11.2017 17:00:00 9,2 7,3 8,8 29 16 36 19 ZW 1012,6 10 0,0
21.11.2017 16:00:00 9,5 7,6 9,1 28 15 - - ZW 1012,7 10 0,0
21.11.2017 15:00:00 9,6 8,1 9,3 31 17 43 23 ZW 1013,0 10 0,0
21.11.2017 14:00:00 9,7 8,7 9,4 29 16 40 21 ZW 1013,2 10 0,2
21.11.2017 13:00:00 9,5 9,2 9,5 28 15 - - ZW 1013,3 2,1 0,7
21.11.2017 12:00:00 10,1 9,4 9,8 29 16 40 21 ZW 1013,6 10 0,3
21.11.2017 11:00:00 10,2 9,5 10,0 31 17 40 21 ZW 1013,6 8 0,0
21.11.2017 10:00:00 10,2 9,7 10,0 28 15 - - ZW 1013,4 8 0,0
21.11.2017 09:00:00 10,1 9,8 9,9 28 15 32 18 ZW 1013,1 4,1 0,1
21.11.2017 08:00:00 10,1 9,7 9,9 26 14 32 18 ZW 1012,9 5 0,4
21.11.2017 07:00:00 10,1 9,9 9,9 21 11 - - ZW 1012,7 3,5 0,2
21.11.2017 06:00:00 9,9 9,8 9,8 21 11 29 16 ZW 1012,7 2,6 0,3
21.11.2017 05:00:00 10,0 9,4 9,7 21 11 29 16 ZW 1013,1 10 0,0
21.11.2017 04:00:00 10,0 9,4 9,7 24 13 - - ZW 1013,1 10 0,0
21.11.2017 03:00:00 9,9 9,5 9,6 21 11 32 18 ZW 1013,2 6 0,0
21.11.2017 02:00:00 10,0 9,6 9,6 18 10 29 16 WZW 1013,1 7 0,5
21.11.2017 01:00:00 9,6 9,2 9,4 21 11 - - ZW 1013,2 4,4 0,3
21.11.2017 00:00:00 9,5 8,9 9,2 24 13 36 19 ZW 1013,2 10 0,0
20.11.2017 23:00:00 9,4 8,8 9,1 26 14 36 19 ZW 1013,0 10 0,0
20.11.2017 22:00:00 9,3 8,6 8,8 22 12 - - ZW 1013,1 10 0,0
20.11.2017 21:00:00 8,6 8,3 8,3 28 15 36 19 ZW 1013,2 7 0,7
20.11.2017 20:00:00 8,3 8,0 8,0 28 15 36 19 ZW 1012,9 3,2 0,6
20.11.2017 19:00:00 8,1 7,6 7,9 29 16 - - ZW 1013,3 4,1 0,1
20.11.2017 18:00:00 7,6 7,2 7,3 31 17 40 21 ZW 1013,4 3,8 0,1
20.11.2017 17:00:00 7,3 6,8 6,9 28 15 40 21 ZW 1013,9 7 0,2
20.11.2017 16:00:00 6,6 6,3 6,3 28 15 - - ZZW 1014,4 4,0 0,4
20.11.2017 15:00:00 6,1 5,7 5,9 29 16 36 19 ZW 1015,2 2,9 0,4
20.11.2017 14:00:00 5,0 4,7 4,8 26 14 40 21 ZZW 1016,2 4,0 0,8
20.11.2017 13:00:00 4,5 4,1 4,6 24 13 - - ZZW 1017,4 3,2 0,6
20.11.2017 12:00:00 4,4 3,5 4,5 24 13 32 18 ZZW 1018,7 8 0,4
20.11.2017 11:00:00 4,2 2,6 4,1 26 14 32 18 ZZW 1019,3 10 0,0
20.11.2017 10:00:00 3,7 2,1 3,6 21 11 - - ZZW 1019,9 10 0,1
20.11.2017 09:00:00 3,4 1,5 3,1 15 8 22 12 ZZW 1021,1 10 0,0
20.11.2017 08:00:00 3,2 1,5 2,8 16 9 18 10 ZZW 1021,5 10 0,0
20.11.2017 07:00:00 3,0 1,5 2,7 18 10 - - ZZW 1021,3 10 0,0
20.11.2017 06:00:00 3,0 1,4 2,7 16 9 22 12 ZZW 1021,4 10 0,0
20.11.2017 05:00:00 3,1 1,5 2,6 16 9 22 12 ZZW 1021,7 10 0,0
20.11.2017 04:00:00 2,7 1,6 2,1 16 9 - - ZZW 1022,0 10 0,0
20.11.2017 03:00:00 2,4 1,3 1,9 16 9 18 10 ZW 1022,4 10 0,0
20.11.2017 02:00:00 2,6 1,6 2,1 16 9 22 12 ZW 1022,6 10 0,0
20.11.2017 01:00:00 2,7 1,7 2,3 15 8 - - ZW 1023,0 10 0,0
20.11.2017 00:00:00 2,6 1,6 1,9 15 8 18 10 ZW 1023,4 10 0,0
19.11.2017 23:00:00 3,0 1,9 2,1 15 8 22 12 ZW 1023,4 10 0,0
19.11.2017 22:00:00 4,0 2,6 3,2 11 6 - - WZW 1023,2 10 0,0
19.11.2017 21:00:00 5,0 3,3 4,5 11 6 22 12 WZW 1022,8 10 0,0
19.11.2017 20:00:00 5,3 2,9 4,7 11 6 22 12 W 1022,2 10 0,0
19.11.2017 19:00:00 5,5 3,5 4,8 9 5 - - W 1022,0 10 0,0
19.11.2017 18:00:00 5,5 3,8 5,0 13 7 25 14 W 1021,4 10 0,1
19.11.2017 17:00:00 5,6 3,3 4,3 9 5 29 16 WZW 1020,9 10 0,0
19.11.2017 16:00:00 6,4 3,0 5,7 13 7 - - W 1020,5 10 0,0
19.11.2017 15:00:00 7,6 3,7 8,1 15 8 32 18 W 1020,0 10 0,0
19.11.2017 14:00:00 7,8 3,9 8,3 15 8 29 16 W 1020,0 10 0,0
19.11.2017 13:00:00 6,9 3,7 7,2 15 8 - - W 1020,0 10 0,0
19.11.2017 12:00:00 6,6 3,4 7,5 15 8 25 14 WZW 1019,9 10 0,0
19.11.2017 11:00:00 5,9 3,3 6,3 15 8 29 16 WZW 1019,7 10 0,0
19.11.2017 10:00:00 4,5 2,9 4,1 11 6 - - WZW 1019,2 10 0,0
19.11.2017 09:00:00 3,6 1,9 3,1 9 5 22 12 WZW 1018,8 10 0,0
19.11.2017 08:00:00 3,5 1,6 2,8 11 6 18 10 WZW 1018,4 10 0,0
19.11.2017 07:00:00 3,5 1,5 2,8 11 6 - - WZW 1017,8 10 0,0
19.11.2017 06:00:00 3,5 2,5 2,4 8 4 14 8 WZW 1017,6 10 0,0
19.11.2017 05:00:00 4,3 3,4 3,6 9 5 14 8 W 1017,1 10 0,0
19.11.2017 04:00:00 4,3 3,4 3,7 11 6 - - NW 1017,1 10 0,0
19.11.2017 03:00:00 4,9 3,6 4,3 15 8 36 19 WNW 1016,6 10 0,8
19.11.2017 02:00:00 5,3 4,7 4,8 8 4 18 10 W 1016,2 10 0,0
19.11.2017 01:00:00 5,5 4,8 5,2 9 5 - - W 1016,4 10 0,4
19.11.2017 00:00:00 5,7 4,7 5,4 11 6 22 12 WZW 1016,4 10 0,3
18.11.2017 23:00:00 5,8 4,7 5,4 11 6 25 14 WZW 1017,0 10 2,8
18.11.2017 22:00:00 6,3 5,4 6,1 18 10 - - W 1017,2 10 0,0
18.11.2017 21:00:00 6,6 5,4 6,4 22 12 32 18 ZW 1017,6 10 0,0
18.11.2017 20:00:00 6,5 4,7 6,1 24 13 36 19 ZW 1017,7 10 0,0
18.11.2017 19:00:00 6,5 4,0 5,6 22 12 - - ZW 1018,5 10 0,0
18.11.2017 18:00:00 6,4 3,5 5,8 24 13 36 19 ZW 1018,8 10 0,0
18.11.2017 17:00:00 6,4 3,1 5,5 22 12 29 16 ZW 1019,1 10 0,0

tt = temperatuur
td = dauwpunt
tt 5cm = temperatuur 5cm
ff = windsnelheid
fx = windstoten
dd = windrichting
ppp = luchtdruk
vv = zicht
rr = neerslag

Weerstations in de omgeving